Flag for Germany Weather past 2 weeks in Konstanz, Baden-Württemberg, Germany

Now
69 °F

Clear.


Feels Like: 69 °F
Forecast: 64 / 91 °F
Wind: 1 mph from Northwest

Location: Konstanz

Current Time: Jul 2, 2015 at 3:36:29 AM

Latest Report: Jul 2, 2015 at 3:00 AM


Visibility: 25 mi

Pressure: 30.10 "Hg

Humidity: 81%

Dew point: 62 °F

Location of KonstanzLocation

Historic Weather in Konstanz — Graph

°F

Konstanz temperature yesterday

Maximum temperature yesterday: 91 °F (at 5:00 PM)
Minimum temperature yesterday: 64 °F (at 7:00 AM)
Average temperature yesterday: 77 °F

Past Weeks' High & Low Weather Summary

 TemperatureHumidityPressure
High91 °F (Jul 1, 5:00 PM)97% (Jun 18, 11:00 PM)30.23 "Hg (Jun 18, 11:00 PM)
Low49 °F (Jun 24, 5:00 AM)21% (Jun 26, 4:00 PM)29.72 "Hg (Jun 22, 10:00 PM)
Average65 °F66%30.09 "Hg
* Reported Jun 17 2:00 AM — Jul 2 2:00 AM, Konstanz, Weather by CustomWeather, © 2015

Note: Actual official high and low records may vary slightly from our data, if they occured in-between our weather recording intervals... More about our weather records

Advertising

Konstanz weather history for previous 24 hours

 ConditionsComfort  
Time TempWeatherWind HumidityBarometerVisibility
2:00 AM
Thu, Jul 2
70 °FClear.1 mph74%30.09 "Hg25 mi
1:00 AM71 °FClear.1 mph69%30.09 "Hg28 mi
12:00 AM73 °FClear.1 mph63%30.07 "Hg28 mi
11:00 PM
Wed, Jul 1
77 °FClear.3 mph53%30.06 "Hg37 mi
10:00 PM79 °FClear.2 mph41%30.03 "Hg43 mi
9:00 PM82 °FSunny.2 mph38%30.01 "Hg28 mi
8:00 PM90 °FSunny.1 mph24%29.98 "Hg25 mi
7:00 PM90 °FSunny.2 mph22%29.98 "Hg22 mi
6:00 PM89 °FSunny.2 mph31%29.99 "Hg22 mi
5:00 PM91 °FSunny.2 mph22%29.99 "Hg19 mi
4:00 PM90 °FSunny.2 mph26%30.01 "Hg22 mi
3:00 PM89 °FSunny.1 mph25%30.01 "Hg25 mi
2:00 PM84 °FSunny.2 mph37%30.03 "Hg25 mi
1:00 PM83 °FPassing clouds.2 mph43%30.04 "Hg25 mi
12:00 PM80 °FSunny.1 mph48%30.06 "Hg25 mi
11:00 AM78 °FSunny.1 mph49%30.07 "Hg25 mi
10:00 AM75 °FPassing clouds.1 mph51%30.08 "Hg25 mi
9:00 AM72 °FSunny.1 mph61%30.08 "Hg25 mi
8:00 AM67 °FSunny.1 mph75%30.10 "Hg22 mi
7:00 AM64 °FSunny.2 mph84%30.11 "Hg19 mi
6:00 AM64 °FSunny.1 mph86%30.09 "Hg14 mi
5:00 AM64 °FClear.2 mph85%30.08 "Hg19 mi
4:00 AM65 °FClear.2 mph83%30.07 "Hg22 mi
3:00 AM66 °FClear.2 mph78%30.07 "Hg22 mi
Weather by CustomWeather, © 2015

See weather overviewHow to use our weather pages